Regional Weather Roundup
Issued by NWS Green Bay, WI

Home | Current Version | Previous Version | Graphics & Text | Print | Product List | Glossary Off
Versions: 1 2 3 4 5 6 7 8 9 10 11 12 13 14 15 16 17 18 19 20 21 22 23 24 25 26 27 28 29 30 31 32 33 34 35 36 37 38 39 40 41 42 43 44 45 46 47 48 49 50

000
ASUS43 KGRB 221500
RWRGRB

NORTH-CENTRAL AND NORTHEAST WISCONSIN REGIONAL WEATHER ROUNDUP
NATIONAL WEATHER SERVICE GREEN BAY WI
1000 AM CDT MON MAY 22 2017

WIZ005-009-010>012-018-019-221600-
NORTH CENTRAL WISCONSIN

CITY           SKY/WX    TMP DP  RH WIND       PRES   REMARKS
IRONWOOD       CLOUDY    48  43  82 SW12      29.77S
MANITOWISH WTR NOT AVBL
ARBOR VITAE    NOT AVBL
EAGLE RIVER    NOT AVBL
LAND O LAKES   NOT AVBL
RHINELANDER    CLOUDY    49  43  80 W10       29.82S
PHILLIPS       NOT AVBL
ANTIGO         NOT AVBL
TOMAHAWK       NOT AVBL
MERRILL        NOT AVBL
$$

WIZ013-073-221600-
NORTHEAST WISCONSIN

CITY           SKY/WX    TMP DP  RH WIND       PRES   REMARKS
IRON MOUNTAIN  CLOUDY    49  40  71 W16G23    29.78S
MARINETTE      CLOUDY    53  43  68 W10G16    29.84S
$$

WIZ017-030-035>037-045-221600-
CENTRAL WISCONSIN

CITY           SKY/WX    TMP DP  RH WIND       PRES   REMARKS
MEDFORD        NOT AVBL
WAUSAU         PTSUNNY   53  44  71 W12       29.84F
MOSINEE        PTSUNNY   52  45  76 W12       29.87F
MARSHFIELD     SUNNY     54  44  69 SW14      29.86S
WISC RAPIDS    MOSUNNY   57  43  59 W13G18    29.90S
STEVENS POINT  NOT AVBL
WAUPACA        NOT AVBL
SHAWANO        NOT AVBL
CLINTONVILLE   NOT AVBL
WAUTOMA        SUNNY     57  44  62 SW10      29.91F
$$

WIZ038-039-048-051-221600-
FOX VALLEY

CITY           SKY/WX    TMP DP  RH WIND       PRES   REMARKS
NWS GREEN BAY  PTSUNNY   54  46  74 W17G25    29.90R
APPLETON       PTSUNNY   54  39  58 SW18      29.89S
OSHKOSH        SUNNY     55  43  63 W10       29.91S
FOND DU LAC    MOSUNNY   58  42  55 W10       29.93S
$$

WIZ022-050-052-221600-
EAST CENTRAL WISCONSIN

CITY           SKY/WX    TMP DP  RH WIND       PRES   REMARKS
EPHRAIM        NOT AVBL
WASHINGTON ISL NOT AVBL
STURGEON BAY   CLOUDY    52  43  71 W16G23    29.86R
MANITOWOC      NOT AVBL
SHEBOYGAN      SUNNY     57  45  64 W14       29.92S
$$

LMZ563-521-522-541>543-221600-
LAKESHORE

STATION/POSITION TIME  TEMP    WIND        PRES    VSBY  WAVE
                       AIR SEA DIR/SP/G                  HT/PER
                 (UTC) (F)     (DEG/KT/KT) (MB)    (MI)  (FT/S)
SHEBOYGAN LKSHOR 1400   53     260/ 14/ 16 1013.3R
KEWAUNEE LKSHORE 1430   52     270/ 13/ 21 1011.6R
NORTHPORT PIER   1440   51     260/  4/ 15 1010.2R
N MID LAKE BUOY  1350   41 39  210/ 12/ 14 1010.7R         3/ 5
CHAMBERS ISLAND  1430   51     220/  7/ 12 1009.8S
MENOMINEE LKSHOR 1430          250/ 16/ 21 1009.7S
$$




USA.gov is the U.S. government's official web portal to all federal, state and local government web resources and services.